Location: Mercogliano
(40.9167°N, 14.7333°E)
Time: 04:41:36
(UTC+00:00)

Sich 1 Rocket - Pass Details

Date: 18 September 2020
Orbit: 616 x 652 km, 82.5° (Epoch: 25 October)

Event Time Altitude Azimuth Distance (km) Brightness Sun altitude
Rises 17:41:02 0° 167° (SSE) 2,907 6.8 -7.7°
Reaches altitude 10° 17:43:21 10° 159° (SSE) 2,010 5.9 -8.1°
Maximum altitude 17:47:29 38° 91° (E) 978 4.1 -8.9°
Drops below altitude 10° 17:51:40 10° 24° (NNE) 2,046 6.1 -9.7°
Sets 17:54:03 0° 16° (NNE) 2,965 7.0 -10.1°
